Regional Weather Roundup
Issued by NWS Sterling, VA

Home | Current Version | Previous Version | Graphics & Text | Print | Product List | Glossary On
Versions: 1 2 3 4 5 6 7 8 9 10 11 12 13 14 15 16 17 18 19 20 21 22 23 24 25 26 27 28
000
ASUS41 KLWX 240411
RWRLWX

REGIONAL WEATHER ROUNDUP
NATIONAL WEATHER SERVICE BALTIMORE MD/WASHINGTON DC
1200 AM EDT MON JUL 24 2017

Note: "FAIR" indicates few or no clouds below 12,000 feet
with no significant weather and/or obstructions to visibility.
 TC=TEMPERATURE CELSIUS

 * =Non NWS site. Station does not report precipitation (e.g. rain,
    snow, etc.), thunder, or fog.

DCZ001-MDZ009-015-VAZ040>042-051-053>054-240500-
WASHINGTON METRO

CITY           SKY/WX    TMP DP  RH WIND       PRES   REMARKS
WASHINGTON NAT TSTM      76  74  93 N13       29.78S
DULLES         CLOUDY    74  72  93 SE6       29.77F
ANDREWS AFB    CLOUDY    77  75  94 CALM      29.76F
FT BELVOIR     CLOUDY    75  73  93 NW3       29.76F
QUANTICO       LGT RAIN  83  79  88 S9        29.77F HX  94
COLLEGE PARK*  CLOUDY    75  74  96 W14G20    29.80R
LEESBURG*      CLOUDY    75  75 100 CALM      29.80F
MANASSAS*      CLOUDY    77  72  84 CALM      29.78S
GAITHERSBURG*  TSTM      74  73  97 SE9       29.81S

$$

MDZ006>007-011-014-240500-
BALTIMORE METRO

CITY           SKY/WX    TMP DP  RH WIND       PRES   REMARKS
BWI AIRPORT    TSTM      76  76 100 N5        29.78F FOG
MD SCIENCE CTR   N/A     80  77  90 MISG      29.78F
MARTIN STATE   CLOUDY    79  77  94 E5        29.79F
ANNAPOLIS      CLOUDY    82  81  96 SE9       29.76F HX  95
FORT MEADE*    MOCLDY    72  72 100 CALM      29.81S

$$

MDZ012-015-019>023-240500-
MARYLAND EASTERN SHORE

CITY           SKY/WX    TMP DP  RH WIND       PRES   REMARKS
OCEAN CITY     CLOUDY    76  74  93 CALM      29.79F
SALISBURY      NOT AVBL
BAY BRIDGE AP* CLOUDY    79  75  89 E6        29.77F
CAMBRIDGE*     CLEAR     77  75  94 SE6       29.78F
EASTON*        CLOUDY    78  74  87 SE6       29.81F

$$

MDZ017>025-240500-
SOUTHERN MARYLAND

CITY           SKY/WX    TMP DP  RH WIND       PRES   REMARKS
PATUXENT RIVER MOCLDY    81  78  91 S7        29.77F
ST INIGOES     CLOUDY    83  78  85 S9        29.76F HX  93
LEONARDTOWN*   MOCLDY    79  75  89 S3        29.79F

$$

MDZ003>005-240500-
NORTH CENTRAL MARYLAND

CITY           SKY/WX    TMP DP  RH WIND       PRES   REMARKS
FREDERICK*     CLOUDY    77  77 100 S3        29.81F
HAGERSTOWN APT TSTM      74  69  85 SW3       29.80S
WESTMINSTER*   CLOUDY    73  72  94 SE5       29.80F THUNDER

$$

MDZ501>502-240500-
WESTERN MARYLAND

CITY           SKY/WX    TMP DP  RH WIND       PRES   REMARKS
OAKLAND*       CLOUDY    64  63  94 SW10G17   29.87F
CUMBERLAND*    CLOUDY    73  73 100 CALM      29.83F

$$

VAZ025>031-240500-
SHENANDOAH VALLEY

CITY           SKY/WX    TMP DP  RH WIND       PRES   REMARKS
WINCHESTER*    LGT RAIN  77  70  78 NW8       29.79F
FRONT ROYAL*   CLOUDY    75  70  83 CALM      29.79F
LURAY*         CLOUDY    77  70  78 CALM      29.81F
NEW MARKET*    CLOUDY    74  68  80 CALM      29.80F
STAUNTON*      CLOUDY    76  65  68 CALM      29.86F
WAYNESBORO*    CLOUDY    78  64  63 SW6       29.86F

$$

WVZ021-048>050-054>055-240500-
EASTERN WEST VIRGINIA PANHANDLE

CITY           SKY/WX    TMP DP  RH WIND       PRES   REMARKS
MARTINSBURG    CLOUDY    75  73  93 N3        29.78F
PETERSBURG*    MOCLDY    82  65  56 SW6       29.82S

$$

VAZ036>039-050-240500-
CENTRAL FOOTHILLS

CITY           SKY/WX    TMP DP  RH WIND       PRES   REMARKS
CHARLOTTESVILL CLOUDY    82  69  64 CALM      29.79F
CULPEPER*      CLOUDY    78  75  92 N6        29.78F
ORANGE*        CLOUDY    77  72  83 CALM      29.79F
GORDONSVILLE*  CLOUDY    77  74  91 CALM      29.78F
WARRENTON*     CLOUDY    79  75  88 CALM      29.77F

$$

VAZ055>057-240500-
NORTH AND CENTRAL PIEDMONT

CITY           SKY/WX    TMP DP  RH WIND       PRES   REMARKS
FREDERICKSBRG* PTCLDY    81  76  84 MISG      29.77S
STAFFORD*      CLOUDY    79  77  94 S3        29.82S

$$

NCZ024-NYZ072-PAZ021-071-VAZ022-071-240500-
OTHER REGIONAL OBSERVATIONS

CITY           SKY/WX    TMP DP  RH WIND       PRES   REMARKS
NEW YORK CITY  CLOUDY    73  67  81 VRB5      29.89R
PHILADELPHIA   CLOUDY    72  69  90 E9        29.82F
PITTSBURGH     CLOUDY    69  68  96 CALM      29.80S
ROANOKE        CLOUDY    81  70  69 E9        29.87F
RICHMOND       TSTM      77  73  87 S5        29.84S FOG
RALEIGH        MOCLDY    71  70  96 SW6       29.88S

$$

ANZ530>537-240500-
MARINE OBSERVATIONS

STATION/POSITION TIME  TEMP    WIND        PRES
                       AIR SEA DIR/SP/G
                 (UTC) (F)     (DEG/KT/KT) (MB)
THOMAS PT LIGHT  0400   80 83  130/ 10/ 12   N/A
BALT KEY BRIDGE  0348   80     120/ 11/ 12 1007.8F
COVE POINT       0348   83     180/ 16/ 20 1008.6F
LEWISETTA        0348   82 86  220/ 14/ 18 1008.1F
SOLOMONS ISLAND  0348          170/  9/ 11   N/A
PINEY POINT      0348          220/ 17/ 18   N/A

$$





USA.gov is the U.S. government's official web portal to all federal, state and local government web resources and services.